{"data":{"norad_id":67595,"intl_designator":"2026-018G","name":"STARLINK-36628","alt_names":[],"object_type":"PAYLOAD","status":"ACTIVE","operator":null,"country":"US","launch_date":"2026-01-29","launch_site_code":"AFWTR","launch_vehicle":null,"mission":null,"orbit_class":"UNKNOWN","rcs_meters":null,"size_class":null,"mass_kg":null,"dimensions":null,"purposes":["comms"],"wikipedia_slug":null,"has_3d_model":false,"image_url":null,"decayed_at":null,"tle_current":{"epoch":"2026-05-25T03:49:59.076192Z","epoch_age_seconds":64540,"freshness":"FRESH","line1":"1 67595U 26018G   26145.15971153  .00016950  00000+0  52610-3 0  9996","line2":"2 67595  97.2837 210.2892 0000911  78.8187 281.3158 15.33449731 19057","mean_motion":15.33449731,"eccentricity":9.11e-5,"inclination_deg":97.2837,"raan_deg":210.2892,"arg_perigee_deg":78.8187,"mean_anomaly_deg":281.3158,"bstar":0.0005261,"rev_number":1905,"period_min":93.905914937358,"perigee_km":464.9056404053,"apogee_km":466.15255636843,"semimajor_km":6843.6660983869,"source":"CELESTRAK","updated_at":"2026-05-25T13:38:21.620324Z"}}}